|  Orbital Elements
Epoch 2009 Jan. 9.0 TT = JDT 2454840.5                                          
T 2009 Jan. 23.90727 TT                                 Veres                   
q   1.6462761            (2000.0)            P               Q                  
n   0.16022528     Peri.  337.61927     +0.79906053     -0.59219512             
a   3.3572372      Node    59.11032     +0.56835861     +0.68756665             
e   0.5096337      Incl.    6.95794     +0.19613965     +0.42018691             
P   6.15                                                                        
From 148 observations 2008 Nov. 30-2021 Dec. 2, mean residual 0".7.             
 
 |